Tracking 28790 objects as of 19-Apr-2024
HD Live streaming from Space Station
objects crossing your sky now

NAVSTAR 30 (USA 88)

Track NAVSTAR 30 (USA 88) now!
NAVSTAR 30 (USA 88) is classified as:


NORAD ID: 22446
Int'l Code: 1993-007A
Perigee: 21,277.7 km
Apogee: 21,423.3 km
Inclination: 53.8 °
Period: 765.6 minutes
Semi major axis: 27721 km
RCS: 2.5118 m2 (large)
Launch date: February 3, 1993
Source: United States (US)
Launch site: AIR FORCE EASTERN TEST RANGE (AFETR)
Your satellite tracking list
Your tracking list is empty




NASA's NSSDC Master Catalog

Two Line Element Set (TLE):
1 22446U 93007A   24108.57596590 -.00000026  00000-0  00000-0 0  9997
2 22446  53.7979 271.5556 0026261  30.4875  23.8427  1.88095085219131
Source of the keplerian elements: AFSPC